Time,TemperatureF,DewpointF,PressureIn,WindDirection,WindDirectionDegrees,WindSpeedMPH,WindSpeedGustMPH,Humidity,HourlyPrecipIn,Conditions,Clouds,dailyrainin,SolarRadiationWatts/m^2,SoftwareType,DateUTC
2013-03-12 00:02:00,68.0,60.0,-100.00,SSE,158,2.0,7.0,75,0.00,,,0.13,0.000000,,2013-03-12 10:02:00,
2013-03-12 00:12:00,68.0,60.0,-100.00,SSE,158,2.0,7.0,75,0.00,,,0.13,0.000000,,2013-03-12 10:12:00,
2013-03-12 00:22:00,68.0,60.0,-100.00,SSE,158,2.0,7.0,75,0.00,,,0.13,0.000000,,2013-03-12 10:22:00,
2013-03-12 00:32:00,68.0,60.0,-100.00,SSE,158,2.0,7.0,75,0.00,,,0.13,0.000000,,2013-03-12 10:32:00,
2013-03-12 01:02:00,68.0,62.0,-100.00,NNE,17,3.0,5.0,80,0.00,,,0.13,0.000000,,2013-03-12 11:02:00,
2013-03-12 01:12:00,68.0,62.0,-100.00,NNE,17,3.0,5.0,80,0.00,,,0.13,0.000000,,2013-03-12 11:12:00,
2013-03-12 01:22:00,68.0,62.0,-100.00,NNE,17,3.0,5.0,80,0.00,,,0.13,0.000000,,2013-03-12 11:22:00,
2013-03-12 01:32:00,68.0,62.0,-100.00,NNE,17,3.0,5.0,80,0.00,,,0.13,0.000000,,2013-03-12 11:32:00,
2013-03-12 02:02:00,68.0,61.0,-100.00,WNW,302,6.0,9.0,78,0.00,,,0.13,0.000000,,2013-03-12 12:02:00,
2013-03-12 02:12:00,68.0,61.0,-100.00,WNW,302,6.0,9.0,78,0.00,,,0.13,0.000000,,2013-03-12 12:12:00,
2013-03-12 02:22:00,68.0,61.0,-100.00,WNW,302,6.0,9.0,78,0.00,,,0.13,0.000000,,2013-03-12 12:22:00,
2013-03-12 02:32:00,68.0,61.0,-100.00,WNW,302,6.0,9.0,78,0.00,,,0.13,0.000000,,2013-03-12 12:32:00,
2013-03-12 03:02:00,68.0,61.0,-100.00,ENE,62,2.0,7.0,78,0.00,,,0.13,0.000000,,2013-03-12 13:02:00,
2013-03-12 03:12:00,68.0,61.0,-100.00,ENE,62,2.0,7.0,78,0.00,,,0.13,0.000000,,2013-03-12 13:12:00,
2013-03-12 03:22:00,68.0,61.0,-100.00,ENE,62,2.0,7.0,78,0.00,,,0.13,0.000000,,2013-03-12 13:22:00,
2013-03-12 03:32:00,68.0,61.0,-100.00,ENE,62,2.0,7.0,78,0.00,,,0.13,0.000000,,2013-03-12 13:32:00,
2013-03-12 04:02:00,67.0,61.0,-100.00,North,7,2.0,5.0,82,0.00,,,0.13,0.000000,,2013-03-12 14:02:00,
2013-03-12 04:12:00,67.0,61.0,-100.00,North,7,2.0,5.0,82,0.00,,,0.13,0.000000,,2013-03-12 14:12:00,
2013-03-12 04:22:00,67.0,61.0,-100.00,North,7,2.0,5.0,82,0.00,,,0.13,0.000000,,2013-03-12 14:22:00,
2013-03-12 04:32:00,67.0,61.0,-100.00,North,7,2.0,5.0,82,0.00,,,0.13,0.000000,,2013-03-12 14:32:00,
2013-03-12 05:02:00,67.0,61.0,-100.00,SSE,154,3.0,6.0,82,0.00,,,0.13,0.000000,,2013-03-12 15:02:00,
2013-03-12 05:12:00,67.0,61.0,-100.00,SSE,154,3.0,6.0,82,0.00,,,0.13,0.000000,,2013-03-12 15:12:00,
2013-03-12 05:22:00,67.0,61.0,-100.00,SSE,154,3.0,6.0,82,0.00,,,0.13,0.000000,,2013-03-12 15:22:00,
2013-03-12 05:32:00,67.0,61.0,-100.00,SSE,154,3.0,6.0,82,0.00,,,0.13,0.000000,,2013-03-12 15:32:00,
2013-03-12 06:02:00,67.0,62.0,-100.00,ENE,60,2.0,5.0,83,0.00,,,0.13,0.000000,,2013-03-12 16:02:00,
2013-03-12 06:12:00,67.0,62.0,-100.00,ENE,60,2.0,5.0,83,0.00,,,0.13,0.000000,,2013-03-12 16:12:00,
2013-03-12 06:22:00,67.0,62.0,-100.00,ENE,60,2.0,5.0,83,0.00,,,0.13,0.000000,,2013-03-12 16:22:00,
2013-03-12 06:32:00,67.0,62.0,-100.00,ENE,60,2.0,5.0,83,0.00,,,0.13,0.000000,,2013-03-12 16:32:00,
2013-03-12 07:02:00,67.0,61.0,-100.00,North,350,3.0,7.0,82,0.00,,,0.13,0.000000,,2013-03-12 17:02:00,
2013-03-12 07:12:00,67.0,61.0,-100.00,North,350,3.0,7.0,82,0.00,,,0.13,0.000000,,2013-03-12 17:12:00,
2013-03-12 07:22:00,67.0,61.0,-100.00,North,350,3.0,7.0,82,0.00,,,0.13,0.000000,,2013-03-12 17:22:00,
2013-03-12 07:33:00,67.0,61.0,-100.00,North,350,3.0,7.0,82,0.00,,,0.13,0.000000,,2013-03-12 17:33:00,
2013-03-12 08:02:00,69.0,63.0,-100.00,North,351,3.0,9.0,81,0.00,,,0.13,28.000000,,2013-03-12 18:02:00,
2013-03-12 08:12:00,69.0,63.0,-100.00,North,351,3.0,9.0,81,0.00,,,0.13,28.000000,,2013-03-12 18:12:00,
2013-03-12 08:22:00,69.0,63.0,-100.00,North,351,3.0,9.0,81,0.00,,,0.13,28.000000,,2013-03-12 18:22:00,
2013-03-12 08:32:00,69.0,63.0,-100.00,North,351,3.0,9.0,81,0.00,,,0.13,28.000000,,2013-03-12 18:32:00,
2013-03-12 09:03:00,69.0,61.0,-100.00,SW,229,3.0,5.0,76,0.00,,,0.13,111.000000,,2013-03-12 19:03:00,
2013-03-12 09:13:00,69.0,61.0,-100.00,SW,229,3.0,5.0,76,0.00,,,0.13,111.000000,,2013-03-12 19:13:00,
2013-03-12 09:22:00,69.0,61.0,-100.00,SW,229,3.0,5.0,76,0.00,,,0.13,111.000000,,2013-03-12 19:22:00,
2013-03-12 09:32:00,69.0,61.0,-100.00,SW,229,3.0,5.0,76,0.00,,,0.13,111.000000,,2013-03-12 19:32:00,
2013-03-12 10:02:00,70.0,62.0,-100.00,WSW,256,2.0,6.0,76,0.00,,,0.13,163.000000,,2013-03-12 20:02:00,
2013-03-12 10:12:00,70.0,62.0,-100.00,WSW,256,2.0,6.0,76,0.00,,,0.13,163.000000,,2013-03-12 20:12:00,
2013-03-12 10:22:00,70.0,62.0,-100.00,WSW,256,2.0,6.0,76,0.00,,,0.13,163.000000,,2013-03-12 20:22:00,
2013-03-12 10:32:00,70.0,62.0,-100.00,WSW,256,2.0,6.0,76,0.00,,,0.13,163.000000,,2013-03-12 20:32:00,
2013-03-12 11:02:00,72.0,62.0,-100.00,SSW,203,3.0,6.0,70,0.00,,,0.13,273.000000,,2013-03-12 21:02:00,
2013-03-12 11:12:00,72.0,62.0,-100.00,SSW,203,3.0,6.0,70,0.00,,,0.13,273.000000,,2013-03-12 21:12:00,
2013-03-12 11:22:00,72.0,62.0,-100.00,SSW,203,3.0,6.0,70,0.00,,,0.13,273.000000,,2013-03-12 21:22:00,
2013-03-12 11:32:00,72.0,62.0,-100.00,SSW,203,3.0,6.0,70,0.00,,,0.13,273.000000,,2013-03-12 21:32:00,
2013-03-12 12:02:00,74.0,64.0,-100.00,SSW,206,3.0,7.0,70,0.00,,,0.13,423.000000,,2013-03-12 22:02:00,
2013-03-12 12:12:00,74.0,64.0,-100.00,SSW,206,3.0,7.0,70,0.00,,,0.13,423.000000,,2013-03-12 22:12:00,
2013-03-12 12:22:00,74.0,64.0,-100.00,SSW,206,3.0,7.0,70,0.00,,,0.13,423.000000,,2013-03-12 22:22:00,
2013-03-12 12:32:00,74.0,64.0,-100.00,SSW,206,3.0,7.0,70,0.00,,,0.13,423.000000,,2013-03-12 22:32:00,
2013-03-12 13:02:00,73.0,61.0,-100.00,South,183,6.0,9.0,67,0.00,,,0.13,491.000000,,2013-03-12 23:02:00,
2013-03-12 13:12:00,73.0,61.0,-100.00,South,183,6.0,9.0,67,0.00,,,0.13,491.000000,,2013-03-12 23:12:00,
2013-03-12 13:22:00,73.0,61.0,-100.00,South,183,6.0,9.0,67,0.00,,,0.13,491.000000,,2013-03-12 23:22:00,
2013-03-12 13:34:00,73.0,61.0,-100.00,South,183,6.0,9.0,67,0.00,,,0.13,491.000000,,2013-03-12 23:34:00,
2013-03-12 14:02:00,75.0,62.0,-100.00,SW,228,5.0,10.0,65,0.00,,,0.13,555.000000,,2013-03-13 00:02:00,
2013-03-12 14:12:00,75.0,62.0,-100.00,SW,228,5.0,10.0,65,0.00,,,0.13,555.000000,,2013-03-13 00:12:00,
2013-03-12 14:22:00,75.0,62.0,-100.00,SW,228,5.0,10.0,65,0.00,,,0.13,555.000000,,2013-03-13 00:22:00,
2013-03-12 14:32:00,75.0,62.0,-100.00,SW,228,5.0,10.0,65,0.00,,,0.13,555.000000,,2013-03-13 00:32:00,
2013-03-12 15:02:00,77.0,61.0,-100.00,SW,221,7.0,12.0,58,0.00,,,0.13,725.000000,,2013-03-13 01:02:00,
2013-03-12 15:12:00,77.0,61.0,-100.00,SW,221,7.0,12.0,58,0.00,,,0.13,725.000000,,2013-03-13 01:12:00,
2013-03-12 15:22:00,77.0,61.0,-100.00,SW,221,7.0,12.0,58,0.00,,,0.13,725.000000,,2013-03-13 01:22:00,
2013-03-12 15:31:00,77.0,61.0,-100.00,SW,221,7.0,12.0,58,0.00,,,0.13,725.000000,,2013-03-13 01:31:00,
2013-03-12 16:02:00,76.0,59.0,-100.00,SSW,205,7.0,13.0,55,0.00,,,0.13,620.000000,,2013-03-13 02:02:00,
2013-03-12 16:12:00,76.0,59.0,-100.00,SSW,205,7.0,13.0,55,0.00,,,0.13,620.000000,,2013-03-13 02:12:00,
2013-03-12 16:22:00,76.0,59.0,-100.00,SSW,205,7.0,13.0,55,0.00,,,0.13,620.000000,,2013-03-13 02:22:00,
2013-03-12 16:31:00,76.0,59.0,-100.00,SSW,205,7.0,13.0,55,0.00,,,0.13,620.000000,,2013-03-13 02:31:00,
2013-03-12 17:02:00,75.0,58.0,-100.00,SSW,203,7.0,12.0,56,0.00,,,0.13,386.000000,,2013-03-13 03:02:00,
2013-03-12 17:12:00,75.0,58.0,-100.00,SSW,203,7.0,12.0,56,0.00,,,0.13,386.000000,,2013-03-13 03:12:00,
2013-03-12 17:22:00,75.0,58.0,-100.00,SSW,203,7.0,12.0,56,0.00,,,0.13,386.000000,,2013-03-13 03:22:00,
2013-03-12 17:32:00,75.0,58.0,-100.00,SSW,203,7.0,12.0,56,0.00,,,0.13,386.000000,,2013-03-13 03:32:00,
2013-03-12 18:02:00,73.0,58.0,-100.00,NW,323,5.0,12.0,59,0.00,,,0.13,178.000000,,2013-03-13 04:02:00,
2013-03-12 18:12:00,73.0,58.0,-100.00,NW,323,5.0,12.0,59,0.00,,,0.13,178.000000,,2013-03-13 04:12:00,
2013-03-12 18:22:00,73.0,58.0,-100.00,NW,323,5.0,12.0,59,0.00,,,0.13,178.000000,,2013-03-13 04:22:00,
2013-03-12 18:31:00,73.0,58.0,-100.00,NW,323,5.0,12.0,59,0.00,,,0.13,178.000000,,2013-03-13 04:31:00,
2013-03-12 19:02:00,72.0,58.0,-100.00,SE,137,5.0,9.0,61,0.00,,,0.13,68.000000,,2013-03-13 05:02:00,
2013-03-12 19:12:00,72.0,58.0,-100.00,SE,137,5.0,9.0,61,0.00,,,0.13,68.000000,,2013-03-13 05:12:00,
2013-03-12 19:22:00,72.0,58.0,-100.00,SE,137,5.0,9.0,61,0.00,,,0.13,68.000000,,2013-03-13 05:22:00,
2013-03-12 19:32:00,72.0,58.0,-100.00,SE,137,5.0,9.0,61,0.00,,,0.13,68.000000,,2013-03-13 05:32:00,
2013-03-12 20:02:00,70.0,60.0,-100.00,ESE,113,5.0,7.0,70,0.00,,,0.13,0.000000,,2013-03-13 06:02:00,
2013-03-12 20:12:00,70.0,60.0,-100.00,ESE,113,5.0,7.0,70,0.00,,,0.13,0.000000,,2013-03-13 06:12:00,
2013-03-12 20:22:00,70.0,60.0,-100.00,ESE,113,5.0,7.0,70,0.00,,,0.13,0.000000,,2013-03-13 06:22:00,
2013-03-12 20:32:00,70.0,60.0,-100.00,ESE,113,5.0,7.0,70,0.00,,,0.13,0.000000,,2013-03-13 06:32:00,
2013-03-12 21:02:00,69.0,58.0,-100.00,NNE,19,7.0,10.0,68,0.00,,,0.04,0.000000,,2013-03-13 07:02:00,
2013-03-12 21:12:00,69.0,58.0,-100.00,NNE,19,7.0,10.0,68,0.00,,,0.04,0.000000,,2013-03-13 07:12:00,
2013-03-12 21:22:00,69.0,58.0,-100.00,NNE,19,7.0,10.0,68,0.00,,,0.04,0.000000,,2013-03-13 07:22:00,
2013-03-12 21:32:00,69.0,58.0,-100.00,NNE,19,7.0,10.0,68,0.00,,,0.04,0.000000,,2013-03-13 07:32:00,
2013-03-12 22:03:00,68.0,57.0,-100.00,NNE,25,4.0,7.0,69,0.00,,,0.03,0.000000,,2013-03-13 08:03:00,
2013-03-12 22:12:00,68.0,57.0,-100.00,NNE,25,4.0,7.0,69,0.00,,,0.03,0.000000,,2013-03-13 08:12:00,
2013-03-12 22:22:00,68.0,57.0,-100.00,NNE,25,4.0,7.0,69,0.00,,,0.03,0.000000,,2013-03-13 08:22:00,
2013-03-12 22:32:00,68.0,57.0,-100.00,NNE,25,4.0,7.0,69,0.00,,,0.03,0.000000,,2013-03-13 08:32:00,
2013-03-12 23:02:00,67.0,56.0,-100.00,NNE,12,8.0,10.0,69,0.00,,,0.00,0.000000,,2013-03-13 09:02:00,
2013-03-12 23:12:00,67.0,56.0,-100.00,NNE,12,8.0,10.0,69,0.00,,,0.00,0.000000,,2013-03-13 09:12:00,
2013-03-12 23:22:00,67.0,56.0,-100.00,NNE,12,8.0,10.0,69,0.00,,,0.00,0.000000,,2013-03-13 09:22:00,
2013-03-12 23:32:00,67.0,56.0,-100.00,NNE,12,8.0,10.0,69,0.00,,,0.00,0.000000,,2013-03-13 09:32:00,